This is the latest recevied weather packets stored in our database for station/object KE8WMS. If no packets are shown the sender has not sent any weather packets the latest 10 day(s).
| Time | Temp. | Humidity | Pressure | Rain* | Wind** | Luminosity | Snow |
|---|---|---|---|---|---|---|---|
| 1777424459 | 15° C | 77% | 1009 hPa | 0 mm | - | 0 W/m² | - |
| 1777424154 | 15.56° C | 76% | 1008.9 hPa | 0 mm | - | 0 W/m² | - |
| 1777423853 | 15.56° C | 76% | 1008.8 hPa | 0 mm | - | 0 W/m² | - |
| 1777423548 | 15.56° C | 76% | 1008.8 hPa | 0 mm | - | 0 W/m² | - |
| 1777423244 | 15.56° C | 75% | 1009.2 hPa | 0 mm | - | 0 W/m² | - |
| 1777422943 | 15.56° C | 75% | 1009.1 hPa | 0 mm | - | 0 W/m² | - |
| 1777422639 | 15.56° C | 75% | 1008.7 hPa | 0 mm | - | 1 W/m² | - |
| 1777422335 | 16.11° C | 75% | 1008.5 hPa | 0 mm | - | 2 W/m² | - |
| 1777422030 | 16.11° C | 74% | 1008.5 hPa | 0 mm | - | 3 W/m² | - |
| 1777421725 | 16.11° C | 74% | 1008.3 hPa | 0 mm | - | 4 W/m² | - |
| 1777421423 | 16.11° C | 74% | 1008.6 hPa | 0 mm | - | 4 W/m² | - |
| 1777421117 | 16.67° C | 73% | 1008.4 hPa | 0 mm | - | 6 W/m² | - |
| 1777420813 | 16.67° C | 74% | 1008.6 hPa | 0 mm | - | 10 W/m² | - |
| 1777420509 | 16.67° C | 74% | 1008.4 hPa | 0 mm | - | 14 W/m² | - |
| 1777420206 | 16.67° C | 74% | 1008.7 hPa | 0 mm | - | 18 W/m² | - |
| 1777419901 | 16.67° C | 74% | 1008.6 hPa | 0 mm | - | 22 W/m² | - |
| 1777419599 | 17.22° C | 73% | 1008.7 hPa | 0 mm | - | 30 W/m² | - |
| 1777419298 | 17.22° C | 74% | 1008.6 hPa | 0 mm | - | 36 W/m² | - |
| 1777418996 | 17.22° C | 73% | 1008.6 hPa | 0 mm | - | 40 W/m² | - |
| 1777418695 | 17.22° C | 73% | 1008.6 hPa | 0 mm | - | 47 W/m² | - |
| 1777418393 | 17.78° C | 72% | 1008.8 hPa | 0 mm | - | 38 W/m² | - |
| 1777418088 | 18.33° C | 71% | 1008.6 hPa | 0 mm | - | 40 W/m² | - |
| 1777417785 | 18.33° C | 69% | 1008.6 hPa | 0 mm | - | 50 W/m² | - |
| 1777417480 | 18.33° C | 69% | 1008.4 hPa | 0 mm | - | 56 W/m² | - |
| 1777417177 | 18.33° C | 68% | 1008.2 hPa | 0 mm | - | 49 W/m² | - |
* Rain latest hour (hover to see other rain measurements)
** Current wind speed in m/s (hover to see current wind gust speed)